Погода в Пыталово

Россия / Псковская область     57°03′50″N   27°55′26″E
темп.,
°C
ветер,
м/с
пор.,
м/с
влажн.,
%
обл.,
%
осадки,
мм/ч
давл.,
гПа
погр.,
м
23 октября, сб
сб2300:00+6юз81482100 0.1 9941368
03:00+5з588898 2.8 995813
06:00+4зюз51385100 0.0 996594
09:00+4зюз6138574 0.0 998706
12:00+4юз61393100 1.1 1001766
15:00+4зсз51293100 3.5 1003972
18:00+4зсз61285100 0.2 1007905
21:00+3зсз51196100 0.3 1010813
24 октября, вс
вс2400:00+3сз6108699 0.1 1014820
03:00+3сз598197 0.1 1017898
06:00+1сз4108839 0.0 1020548
09:00+1зсз49905 0.0 1022480
12:00+3сз4668100 0.0 1025960
15:00+4сз465964 0.0 10261037
18:00+1з237533 0.0 102744
21:00+1зюз237773 0.0 102862
25 октября, пн
пн2500:00+1ююз3787100 0.0 1028168
03:00+1ююз4119146 0.0 1026291
06:00+2юз51389100 0.0 1026374
09:00+3юз51387100 0.0 1025416
12:00+6юз612766 0.0 1024576
15:00+8юз613665 0.0 1023836
18:00+6юз513731 0.0 1022498
21:00+5юз61578100 0.0 1021493
26 октября, вт
вт2600:00+4юз51478100 0.0 1020473
03:00+4ююз51377100 0.0 1019417
06:00+4юз51377100 0.0 1018412
09:00+4юз51379100 0.0 1017389
12:00+7юз51168100 0.0 1016493
15:00+8юз51067100 0.0 1016582
18:00+7юз41174100 0.0 1016423
21:00+7юз41178100 0.0 1015394
27 октября, ср
ср2700:00+6юз51192100 1.6 1014412
03:00+7зюз51195100 4.1 1013528
06:00+6зюз41095100 0.9 1013452
09:00+7зюз4983100 0.9 1013566
12:00+9з598183 0.0 1014807
15:00+10зсз597447 0.2 10161051
18:00+7з37905 0.1 1018157
21:00+5зюз3109597 0.1 1019257